This is the latest recevied weather packets stored in our database for station/object DM2KB-13. If no packets are shown the sender has not sent any weather packets the latest 10 day(s).
| Time | Temp. | Humidity | Pressure | Rain* | Wind** | Luminosity | Snow |
|---|---|---|---|---|---|---|---|
| 1778069485 | 8.33° C | 98% | 1007 hPa | 1.78 mm | - | 111 W/m² | - |
| 1778069185 | 8.33° C | 98% | 1006.9 hPa | 1.78 mm | - | 84 W/m² | - |
| 1778068885 | 8.33° C | 99% | 1006.9 hPa | 2.03 mm | - | 86 W/m² | - |
| 1778068584 | 8.33° C | 99% | 1006.8 hPa | 2.29 mm | - | 102 W/m² | - |
| 1778068284 | 8.33° C | 99% | 1006.8 hPa | 2.29 mm | - | 120 W/m² | - |
| 1778067984 | 8.33° C | 99% | 1006.7 hPa | 2.29 mm | - | 102 W/m² | - |
| 1778067683 | 8.33° C | 99% | 1006.7 hPa | 2.29 mm | - | 90 W/m² | - |
| 1778067383 | 8.33° C | 99% | 1006.7 hPa | 2.03 mm | - | 102 W/m² | - |
| 1778067083 | 8.89° C | 99% | 1006.7 hPa | 2.29 mm | - | 109 W/m² | - |
| 1778066783 | 8.89° C | 99% | 1006.8 hPa | 2.03 mm | - | 104 W/m² | - |
| 1778066482 | 8.89° C | 99% | 1006.7 hPa | 2.03 mm | - | 100 W/m² | - |
| 1778066182 | 8.89° C | 99% | 1006.7 hPa | 1.78 mm | - | 77 W/m² | - |
| 1778065882 | 8.89° C | 99% | 1006.7 hPa | 1.52 mm | - | 62 W/m² | - |
| 1778065581 | 8.89° C | 99% | 1006.6 hPa | 1.52 mm | - | 114 W/m² | - |
| 1778065281 | 8.89° C | 99% | 1006.6 hPa | 1.27 mm | - | 153 W/m² | - |
| 1778064981 | 8.89° C | 99% | 1006.6 hPa | 1.27 mm | - | 142 W/m² | - |
| 1778064680 | 8.89° C | 99% | 1006.6 hPa | 1.27 mm | - | 127 W/m² | - |
| 1778064380 | 8.89° C | 99% | 1006.6 hPa | 1.27 mm | - | 123 W/m² | - |
| 1778064080 | 8.89° C | 99% | 1006.5 hPa | 1.27 mm | - | 123 W/m² | - |
| 1778063780 | 8.89° C | 99% | 1006.5 hPa | 1.52 mm | - | 102 W/m² | - |
| 1778063479 | 8.33° C | 99% | 1006.4 hPa | 1.27 mm | - | 93 W/m² | - |
| 1778063179 | 8.89° C | 99% | 1006.4 hPa | 1.27 mm | - | 105 W/m² | - |
| 1778062879 | 8.89° C | 99% | 1006.3 hPa | 1.27 mm | - | 102 W/m² | - |
| 1778062578 | 8.89° C | 99% | 1006.3 hPa | 1.52 mm | - | 79 W/m² | - |
| 1778062278 | 8.89° C | 99% | 1006.2 hPa | 1.52 mm | - | 72 W/m² | - |
* Rain latest hour (hover to see other rain measurements)
** Current wind speed in m/s (hover to see current wind gust speed)